Time,TemperatureF,DewpointF,PressureIn,WindDirection,WindDirectionDegrees,WindSpeedMPH,WindSpeedGustMPH,Humidity,HourlyPrecipIn,Conditions,Clouds,dailyrainin,SoftwareType,DateUTC
2013-10-22 00:05:00,35.8,35.0,30.13,South,180,0.0,0.0,95,0.00,,,0.00,weatherlink.com 1.10,2013-10-22 05:05:00,
2013-10-22 00:20:00,35.7,34.0,30.12,South,180,0.0,0.0,95,0.00,,,0.00,weatherlink.com 1.10,2013-10-22 05:20:00,
2013-10-22 00:35:00,35.8,35.0,30.12,South,182,4.0,5.0,96,0.00,,,0.00,weatherlink.com 1.10,2013-10-22 05:35:00,
2013-10-22 01:05:00,35.8,35.0,30.12,South,182,2.0,5.0,96,0.00,,,0.00,weatherlink.com 1.10,2013-10-22 06:05:00,
2013-10-22 01:35:00,35.7,34.0,30.11,South,174,1.0,4.0,95,0.00,,,0.00,weatherlink.com 1.10,2013-10-22 06:35:00,
2013-10-22 01:50:00,35.4,34.0,30.11,South,175,4.0,5.0,96,0.00,,,0.00,weatherlink.com 1.10,2013-10-22 06:50:00,
2013-10-22 02:05:00,34.8,34.0,30.12,South,177,3.0,5.0,95,0.00,,,0.00,weatherlink.com 1.10,2013-10-22 07:05:00,
2013-10-22 02:20:00,34.5,33.0,30.12,South,174,3.0,5.0,95,0.00,,,0.00,weatherlink.com 1.10,2013-10-22 07:20:00,
2013-10-22 02:35:00,34.3,33.0,30.11,South,183,3.0,5.0,95,0.00,,,0.00,weatherlink.com 1.10,2013-10-22 07:35:00,
2013-10-22 02:50:00,35.5,35.0,30.11,SSW,199,3.0,5.0,96,0.00,,,0.00,weatherlink.com 1.10,2013-10-22 07:50:00,
2013-10-22 03:05:00,35.9,34.0,30.11,South,189,3.0,5.0,94,0.00,,,0.00,weatherlink.com 1.10,2013-10-22 08:05:00,
2013-10-22 03:20:00,36.4,35.0,30.10,South,188,1.0,5.0,93,0.01,,,0.01,weatherlink.com 1.10,2013-10-22 08:20:00,
2013-10-22 03:35:00,36.6,35.0,30.10,South,188,3.0,4.0,92,0.01,,,0.01,weatherlink.com 1.10,2013-10-22 08:35:00,
2013-10-22 03:50:00,36.2,34.0,30.10,South,188,3.0,4.0,91,0.01,,,0.01,weatherlink.com 1.10,2013-10-22 08:50:00,
2013-10-22 04:05:00,36.0,34.0,30.09,South,182,4.0,4.0,91,0.01,,,0.01,weatherlink.com 1.10,2013-10-22 09:05:00,
2013-10-22 04:20:00,36.0,34.0,30.09,South,184,2.0,4.0,91,0.00,,,0.01,weatherlink.com 1.10,2013-10-22 09:20:00,
2013-10-22 04:35:00,35.5,33.0,30.09,South,190,3.0,5.0,92,0.00,,,0.01,weatherlink.com 1.10,2013-10-22 09:35:00,
2013-10-22 04:50:00,35.5,33.0,30.08,South,191,4.0,7.0,92,0.00,,,0.01,weatherlink.com 1.10,2013-10-22 09:50:00,
2013-10-22 05:05:00,35.8,34.0,30.08,SSW,194,4.0,5.0,92,0.00,,,0.01,weatherlink.com 1.10,2013-10-22 10:05:00,
2013-10-22 05:20:00,35.8,34.0,30.08,SSW,203,3.0,6.0,92,0.00,,,0.01,weatherlink.com 1.10,2013-10-22 10:20:00,
2013-10-22 05:35:00,36.4,35.0,30.08,South,191,4.0,5.0,93,0.00,,,0.01,weatherlink.com 1.10,2013-10-22 10:35:00,
2013-10-22 05:50:00,36.2,34.0,30.08,SW,227,4.0,5.0,91,0.00,,,0.01,weatherlink.com 1.10,2013-10-22 10:50:00,
2013-10-22 06:20:00,36.4,34.0,30.09,SW,221,2.0,5.0,91,0.00,,,0.01,weatherlink.com 1.10,2013-10-22 11:20:00,
2013-10-22 06:35:00,36.4,34.0,30.08,SSW,193,0.0,3.0,92,0.00,,,0.01,weatherlink.com 1.10,2013-10-22 11:35:00,
2013-10-22 06:50:00,36.2,34.0,30.08,SSW,192,4.0,4.0,92,0.00,,,0.01,weatherlink.com 1.10,2013-10-22 11:50:00,
2013-10-22 07:05:00,36.2,34.0,30.07,SSW,196,0.0,4.0,93,0.00,,,0.01,weatherlink.com 1.10,2013-10-22 12:05:00,
2013-10-22 07:20:00,36.7,35.0,30.07,South,182,4.0,8.0,93,0.00,,,0.01,weatherlink.com 1.10,2013-10-22 12:20:00,
2013-10-22 07:35:00,38.0,36.0,30.07,South,188,5.0,9.0,93,0.00,,,0.01,weatherlink.com 1.10,2013-10-22 12:35:00,
2013-10-22 07:50:00,39.6,38.0,30.07,SSW,205,6.0,9.0,92,0.00,,,0.01,weatherlink.com 1.10,2013-10-22 12:50:00,
2013-10-22 08:06:00,41.3,38.0,30.07,SW,231,8.0,12.0,88,0.00,,,0.01,weatherlink.com 1.10,2013-10-22 13:06:00,
2013-10-22 08:21:00,42.0,38.0,30.07,WSW,238,5.0,10.0,87,0.00,,,0.01,weatherlink.com 1.10,2013-10-22 13:21:00,
2013-10-22 08:36:00,42.5,39.0,30.07,SW,220,5.0,10.0,86,0.00,,,0.01,weatherlink.com 1.10,2013-10-22 13:36:00,
2013-10-22 08:51:00,43.2,39.0,30.07,SW,236,6.0,10.0,85,0.00,,,0.01,weatherlink.com 1.10,2013-10-22 13:51:00,
2013-10-22 09:06:00,44.5,40.0,30.07,SSW,208,4.0,7.0,84,0.00,,,0.01,weatherlink.com 1.10,2013-10-22 14:06:00,
2013-10-22 09:21:00,46.1,40.0,30.06,SSW,211,10.0,12.0,80,0.00,,,0.01,weatherlink.com 1.10,2013-10-22 14:21:00,
2013-10-22 09:36:00,46.5,40.0,30.05,South,188,10.0,10.0,79,0.00,,,0.01,weatherlink.com 1.10,2013-10-22 14:36:00,
2013-10-22 09:51:00,47.6,40.0,30.04,South,189,6.0,14.0,76,0.00,,,0.01,weatherlink.com 1.10,2013-10-22 14:51:00,
2013-10-22 10:06:00,48.9,39.0,30.04,SW,234,9.0,13.0,69,0.00,,,0.01,weatherlink.com 1.10,2013-10-22 15:06:00,
2013-10-22 10:21:00,48.8,39.0,30.05,SW,234,7.0,14.0,69,0.00,,,0.01,weatherlink.com 1.10,2013-10-22 15:21:00,
2013-10-22 10:36:00,49.2,39.0,30.03,SW,220,6.0,14.0,68,0.00,,,0.01,weatherlink.com 1.10,2013-10-22 15:36:00,
2013-10-22 10:51:00,50.0,40.0,30.03,SW,218,9.0,14.0,69,0.00,,,0.01,weatherlink.com 1.10,2013-10-22 15:51:00,
2013-10-22 11:06:00,51.0,41.0,30.02,SW,214,12.0,18.0,68,0.00,,,0.01,weatherlink.com 1.10,2013-10-22 16:06:00,
2013-10-22 11:21:00,52.6,41.0,30.02,West,276,9.0,21.0,65,0.00,,,0.01,weatherlink.com 1.10,2013-10-22 16:21:00,
2013-10-22 11:36:00,52.7,42.0,30.02,SW,217,12.0,21.0,66,0.00,,,0.01,weatherlink.com 1.10,2013-10-22 16:36:00,
2013-10-22 11:51:00,54.7,43.0,30.01,West,271,13.0,18.0,66,0.00,,,0.01,weatherlink.com 1.10,2013-10-22 16:51:00,
2013-10-22 12:06:00,56.4,43.0,30.01,East,86,5.0,23.0,62,0.00,,,0.01,weatherlink.com 1.10,2013-10-22 17:06:00,
2013-10-22 12:49:00,60.2,44.0,29.98,WSW,253,9.0,20.0,55,0.00,,,0.01,weatherlink.com 1.10,2013-10-22 17:49:00,
2013-10-22 13:07:00,60.4,44.0,29.98,SW,217,7.0,25.0,55,0.00,,,0.01,weatherlink.com 1.10,2013-10-22 18:07:00,
2013-10-22 13:22:00,61.0,44.0,29.97,WSW,248,8.0,22.0,54,0.00,,,0.01,weatherlink.com 1.10,2013-10-22 18:22:00,
2013-10-22 13:37:00,61.4,44.0,29.96,WSW,246,11.0,19.0,54,0.00,,,0.01,weatherlink.com 1.10,2013-10-22 18:37:00,
2013-10-22 13:52:00,61.5,44.0,29.96,WSW,248,11.0,21.0,53,0.00,,,0.01,weatherlink.com 1.10,2013-10-22 18:52:00,
2013-10-22 14:07:00,62.2,45.0,29.96,West,265,10.0,23.0,53,0.00,,,0.01,weatherlink.com 1.10,2013-10-22 19:07:00,
2013-10-22 14:22:00,62.4,46.0,29.95,West,272,7.0,20.0,55,0.00,,,0.01,weatherlink.com 1.10,2013-10-22 19:22:00,
2013-10-22 14:37:00,63.1,46.0,29.94,WSW,244,7.0,19.0,54,0.00,,,0.01,weatherlink.com 1.10,2013-10-22 19:37:00,
2013-10-22 14:52:00,62.5,45.0,29.94,NW,316,11.0,21.0,54,0.00,,,0.01,weatherlink.com 1.10,2013-10-22 19:52:00,
2013-10-22 15:07:00,62.7,46.0,29.95,WNW,302,16.0,23.0,55,0.00,,,0.01,weatherlink.com 1.10,2013-10-22 20:07:00,
2013-10-22 15:37:00,62.0,45.0,29.95,WNW,288,19.0,27.0,54,0.00,,,0.01,weatherlink.com 1.10,2013-10-22 20:37:00,
2013-10-22 15:52:00,61.6,46.0,29.95,WSW,257,13.0,21.0,57,0.00,,,0.01,weatherlink.com 1.10,2013-10-22 20:52:00,
2013-10-22 16:07:00,62.7,45.0,29.95,WNW,302,18.0,25.0,53,0.00,,,0.01,weatherlink.com 1.10,2013-10-22 21:07:00,
2013-10-22 16:22:00,59.9,45.0,29.95,West,271,13.0,24.0,58,0.00,,,0.01,weatherlink.com 1.10,2013-10-22 21:22:00,
2013-10-22 16:37:00,59.4,45.0,29.95,West,275,13.0,23.0,59,0.00,,,0.01,weatherlink.com 1.10,2013-10-22 21:37:00,
2013-10-22 16:52:00,60.0,45.0,29.95,WNW,287,10.0,15.0,59,0.00,,,0.01,weatherlink.com 1.10,2013-10-22 21:52:00,
2013-10-22 17:07:00,60.4,45.0,29.95,WNW,294,6.0,13.0,58,0.00,,,0.01,weatherlink.com 1.10,2013-10-22 22:07:00,
2013-10-22 17:22:00,60.6,46.0,29.95,West,259,10.0,18.0,58,0.00,,,0.01,weatherlink.com 1.10,2013-10-22 22:22:00,
2013-10-22 17:37:00,60.7,42.0,29.95,WNW,292,11.0,20.0,51,0.00,,,0.01,weatherlink.com 1.10,2013-10-22 22:37:00,
2013-10-22 18:13:00,58.1,41.0,29.97,WNW,302,8.0,19.0,53,0.00,,,0.01,weatherlink.com 1.10,2013-10-22 23:13:00,
2013-10-22 18:22:00,57.4,42.0,29.97,North,355,10.0,13.0,56,0.00,,,0.01,weatherlink.com 1.10,2013-10-22 23:22:00,
2013-10-22 18:53:00,56.3,42.0,29.99,WNW,302,7.0,14.0,59,0.00,,,0.01,weatherlink.com 1.10,2013-10-22 23:53:00,
2013-10-22 19:07:00,56.0,42.0,30.00,NW,317,7.0,15.0,59,0.00,,,0.01,weatherlink.com 1.10,2013-10-23 00:07:00,
2013-10-22 19:22:00,55.9,41.0,30.00,NW,306,8.0,22.0,57,0.00,,,0.01,weatherlink.com 1.10,2013-10-23 00:22:00,
2013-10-22 19:37:00,55.4,40.0,30.01,NW,321,8.0,19.0,57,0.00,,,0.01,weatherlink.com 1.10,2013-10-23 00:37:00,
2013-10-22 19:52:00,54.7,40.0,30.02,NW,323,7.0,17.0,59,0.00,,,0.01,weatherlink.com 1.10,2013-10-23 00:52:00,
2013-10-22 20:07:00,54.0,41.0,30.03,NNW,346,4.0,17.0,61,0.00,,,0.01,weatherlink.com 1.10,2013-10-23 01:07:00,
2013-10-22 20:22:00,52.9,39.0,30.04,NW,326,12.0,17.0,60,0.00,,,0.01,weatherlink.com 1.10,2013-10-23 01:22:00,
2013-10-22 20:37:00,52.0,39.0,30.04,North,355,10.0,19.0,61,0.00,,,0.01,weatherlink.com 1.10,2013-10-23 01:37:00,
2013-10-22 20:52:00,51.3,39.0,30.05,NW,308,8.0,14.0,62,0.00,,,0.01,weatherlink.com 1.10,2013-10-23 01:52:00,
2013-10-22 21:22:00,49.4,39.0,30.06,NW,309,5.0,11.0,67,0.00,,,0.01,weatherlink.com 1.10,2013-10-23 02:22:00,
2013-10-22 21:37:00,48.7,39.0,30.06,NW,321,7.0,12.0,68,0.00,,,0.01,weatherlink.com 1.10,2013-10-23 02:37:00,
2013-10-22 21:52:00,48.1,39.0,30.06,NW,322,3.0,10.0,70,0.00,,,0.01,weatherlink.com 1.10,2013-10-23 02:52:00,
2013-10-22 22:07:00,47.7,38.0,30.07,NW,305,3.0,10.0,70,0.00,,,0.01,weatherlink.com 1.10,2013-10-23 03:07:00,
2013-10-22 22:22:00,47.7,38.0,30.07,WNW,303,9.0,14.0,68,0.00,,,0.01,weatherlink.com 1.10,2013-10-23 03:22:00,
2013-10-22 22:37:00,47.2,37.0,30.07,NNW,348,11.0,14.0,68,0.00,,,0.01,weatherlink.com 1.10,2013-10-23 03:37:00,
2013-10-22 22:52:00,46.4,37.0,30.07,NNW,336,7.0,14.0,69,0.00,,,0.01,weatherlink.com 1.10,2013-10-23 03:52:00,
2013-10-22 23:07:00,45.7,36.0,30.08,WNW,295,10.0,12.0,70,0.00,,,0.01,weatherlink.com 1.10,2013-10-23 04:07:00,
2013-10-22 23:52:00,44.4,36.0,30.09,NW,312,7.0,11.0,72,0.00,,,0.01,weatherlink.com 1.10,2013-10-23 04:52:00,